Flag for U.S.A. Weather past 2 weeks in Pensacola, Florida, U.S.A.

Now
48 °F

Sunny.


Feels Like: 45 °F
Forecast: 39 / 64 °F
Wind: 6 mph from Northeast

Location: Pensacola Regional Airport

Current Time: Dec 18, 2014 at 9:52:36 AM

Latest Report: Dec 18, 2014 at 8:53 AM


Visibility: 10 mi

Pressure: 30.24 "Hg

Humidity: 74%

Dew point: 40 °F

Location of PensacolaLocation

Historic Weather in Pensacola — Graph

°F

Pensacola temperature yesterday

Maximum temperature yesterday: 59 °F (at 2:53 PM)
Minimum temperature yesterday: 40 °F (at 6:53 AM)
Average temperature yesterday: 50 °F

Past Weeks' High & Low Weather Summary

 TemperatureHumidityPressure
High80 °F (Dec 6, 12:53 PM)100% (Dec 3, 7:53 PM)30.37 "Hg (Dec 3, 7:53 PM)
Low37 °F (Dec 9, 6:53 AM)24% (Dec 12, 12:53 PM)30.04 "Hg (Dec 15, 4:53 PM)
Average56 °F73%30.20 "Hg
* Reported Dec 3 8:53 AM — Dec 18 8:53 AM, Pensacola, Weather by CustomWeather, © 2014

Note: Actual official high and low records may vary slightly from our data, if they occured in-between our weather recording intervals... More about our weather records

Advertising

Pensacola weather history for previous 24 hours

 ConditionsComfort  
Time TempWeatherWind HumidityBarometerVisibility
8:53 AM
Dec 18
48 °FSunny.6 mph74%30.24 "Hg10 mi
7:53 AM45 °FSunny.8 mph86%30.22 "Hg10 mi
6:53 AM41 °FSunny.3 mph93%30.20 "Hg10 mi
5:53 AM43 °FSunny.5 mph86%30.20 "Hg10 mi
4:53 AM44 °FClear.5 mph85%30.19 "Hg10 mi
3:53 AM44 °FClear.7 mph89%30.17 "Hg10 mi
2:53 AM44 °FClear.5 mph85%30.19 "Hg10 mi
1:53 AM45 °FClear.No wind82%30.19 "Hg10 mi
12:53 AM46 °FClear.5 mph79%30.19 "Hg10 mi
11:53 PM
Dec 17
47 °FClear.No wind80%30.18 "Hg10 mi
10:53 PM46 °FClear.5 mph83%30.20 "Hg10 mi
9:53 PM47 °FClear.3 mph80%30.20 "Hg10 mi
8:53 PM46 °FClear.6 mph83%30.20 "Hg10 mi
7:53 PM47 °FClear.3 mph77%30.19 "Hg10 mi
6:53 PM50 °FClear.5 mph71%30.20 "Hg10 mi
5:53 PM50 °FClear.No wind71%30.20 "Hg10 mi
4:53 PM55 °FClear.5 mph57%30.19 "Hg10 mi
3:53 PM59 °FClear.8 mph49%30.18 "Hg10 mi
2:53 PM59 °FSunny.7 mph46%30.16 "Hg10 mi
1:53 PM58 °FSunny.No wind47%30.18 "Hg10 mi
12:53 PM56 °FSunny.5 mph53%30.20 "Hg10 mi
11:53 AM56 °FSunny.3 mph51%30.23 "Hg10 mi
10:53 AM55 °FSunny.5 mph51%30.27 "Hg10 mi
9:53 AM53 °FSunny.6 mph56%30.28 "Hg10 mi
Weather by CustomWeather, © 2014

See weather overviewHow to use our weather pages